Location: Caltech
(34.1382°N, 118.1253°W)
Time: 11:56:41
(UTC-07:00)

Saudisat 1A - Visible Passes

Search period start: 24 June 2018 00:00
Search period end: 04 July 2018 00:00
Orbit: 585 x 605 km, 64.6° (Epoch: 23 June)

Date Brightness Start Highest point End Pass type
(mag) Time Alt. Az. Time Alt. Az. Time Alt. Az.
24 Jun 10.5 00:20:00 15° NE 00:20:00 15° NE 00:20:50 10° NE visible
24 Jun 10.5 01:56:37 15° NW 01:56:37 15° NW 01:58:53 10° NNW visible
25 Jun 10.2 00:29:04 22° NNE 00:29:04 22° NNE 00:30:41 10° NNE visible
26 Jun 10.0 00:38:02 26° N 00:38:02 26° N 00:40:15 10° NNE visible
26 Jun 10.7 23:10:21 10° NE 23:10:21 10° NE 23:10:21 10° NE visible
27 Jun 10.2 00:46:56 22° NNW 00:46:56 22° NNW 00:49:30 10° N visible
27 Jun 10.1 23:19:08 19° NE 23:19:08 19° NE 23:20:29 10° NE visible
28 Jun 10.7 00:55:43 14° NW 00:55:58 14° NW 00:58:15 10° NNW visible
28 Jun 9.4 23:27:47 33° NNE 23:27:47 33° NNE 23:30:17 10° NNE visible
29 Jun 9.4 23:36:14 36° NW 23:36:14 36° NW 23:39:48 10° NNE visible
30 Jun 9.4 22:07:53 24° ENE 22:07:53 24° ENE 22:10:04 10° NE visible
30 Jun 10.2 23:44:25 19° WNW 23:45:36 21° NW 23:48:59 10° N visible
01 Jul 7.8 22:15:39 63° SE 22:15:49 64° ESE 22:20:07 10° NE visible
01 Jul 10.9 23:53:42 10° WNW 23:55:37 13° NW 23:57:33 10° NNW visible
02 Jul 8.3 22:22:33 19° SW 22:25:31 65° WNW 22:29:53 10° NNE visible
03 Jul 9.3 20:53:11 10° SSE 20:56:13 19° ESE 20:59:16 10° ENE visible
03 Jul 9.6 22:31:23 10° WSW 22:35:20 34° NW 22:39:20 10° N visible
